English version Home page |
Updated on September 26, 2024 |
プロフィール |
軌道要素Epoch = 2017 Feb. 16.0 TT T = 2017 Feb. 25.12006 TT Peri. = 1.29960 e = 0.5495924 Node = 324.15045 2000.0 q = 1.6834277 AU Incl. = 11.35621 a = 3.7375655 AU n = 0.13640204 P = 7.23 years
|
光度変化m1 = 17.3 + 5 logΔ + 10.0 log r
|
軌道要素は、CBET 5427に掲載されたものです。
|